Regional Weather Roundup
Issued by NWS Wakefield, VA

Home | Current Version | Previous Version | Graphics & Text | Print | Product List | Glossary On
Versions: 1 2 3 4 5 6 7 8 9 10 11 12 13 14 15 16 17 18 19 20 21 22 23 24 25 26 27 28 29 30 31 32 33 34 35 36 37 38 39 40 41 42 43 44 45 46 47 48 49 50
000
ASUS41 KAKQ 280310
RWRAKQ

REGIONAL WEATHER ROUNDUP
NATIONAL WEATHER SERVICE WAKEFIELD VA
1100 PM EDT SUN JUL 27 2014

Note: "fair" indicates few or no clouds below 12,000 feet with no
significant weather and/or obstructions to visibility. * = Denotes
station may not report precipitation (e.g., rain,snow,etc.),
thunder or fog.

VAZ042-051-052>054-056-280400-
NORTHERN VIRGINIA

CITY           SKY/WX    TMP DP  RH WIND       PRES   REMARKS
WASH NATIONAL  MOCLDY    80  72  76 S8        29.66S
DULLES         CLOUDY    77  69  76 SW8       29.67R
FORT BELVOIR   PTCLDY    80  73  79 VRB6      29.66F
QUANTICO       PTCLDY    80  71  74 W14G23    29.67F
FREDERICKSBRG* MOCLDY    80  72  76 SW9       29.68F
STAFFORD*      PTCLDY    79  78  95 SW6       29.72F
WARRENTON      MOCLDY    80  76  88 S10G17    29.67F
CULPEPER*      PTCLDY   N/A N/A N/A SW5       29.69F
MANASSAS*      MOCLDY    79  72  78 SW8       29.66F
LEESBURG*      LGT RAIN  79  73  83 W8        29.68R
WINCHESTER     RAIN      73  70  88 SW14G20   29.70S
$$

VAZ048-049-060>072-079>083-280400-
CENTRAL AND SOUTH CENTRAL VIRGINIA...AND NORTH CENTRAL NORTH CAROLINA

CITY           SKY/WX    TMP DP  RH WIND       PRES   REMARKS
RICHMOND       PTCLDY    79  72  79 S8        29.72F
CHESTERFIELD*  CLEAR     77  64  65 S8        29.74F
HANOVER        PTCLDY    79  71  76 S7        29.73F
TAPPAHANNOCK*  PTCLDY    78  68  72 S7        29.72F
CHARLOTTSVILLE PTCLDY    76  72  87 S10       29.71F
ORANGE*        PTCLDY    77  72  83 S7        29.71F
LOUISA*        PTCLDY    75  72  88 S5        29.71F
FARMVILLE*     PTCLDY    79  75  89 S8        29.72F
SOUTH HILL*    MOCLDY    75  75 100 S3        29.81F
ROANOKE RAPIDS NOT AVBL
RALEIGH        CLOUDY    82  70  66 SW13      29.76F
$$

VAZ088>098-280400-
SOUTHEAST VIRGINIA

CITY           SKY/WX    TMP DP  RH WIND       PRES   REMARKS
NORFOLK        PTCLDY    78  71  79 S10       29.76F
VIRGINIA BEACH MOCLDY    77  72  84 SW10      29.76F
NORFOLK NAVAL  MOCLDY    79  72  79 S7        29.77F
WEST POINT*    PTCLDY    80  73  79 S5        29.75S
NEWPORT NEWS   PTCLDY    81  73  76 SW13      29.75F
LANGLEY AFB    PTCLDY    78  74  87 SW12      29.75F
FORT EUSTIS    PTCLDY    78  78 100 S7        29.74F
WILLIAMSBURG*  CLEAR     79  73  83 S6        29.76F
FRANKLIN*      PTCLDY    75  73  94 S6        29.77F
WAKEFIELD      PTCLDY    77  72  84 S6        29.76F
$$

VAZ020-022-025-037-045-280400-
WESTERN AND SOUTHWEST VIRGINIA

CITY           SKY/WX    TMP DP  RH WIND       PRES   REMARKS
STAUNTON*      CLEAR     76  66  73 S7        29.75S
HOT SPRINGS VA CLOUDY    67  62  84 W20G29    29.91S
LYNCHBURG      PTCLDY    73  72  96 CALM      29.77F
DANVILLE       MOCLDY    75  71  87 CALM      29.76F
MARTINSVILLE   MOCLDY    78  69  73 S3        29.80F
ROANOKE        PTCLDY    78  65  63 SW10      29.78F
BLACKSBURG     PTCLDY    72  68  88 CALM        N/A
DUBLIN*        PTCLDY    74  66  77 SW9       29.86S
MARION*        PTCLDY   N/A N/A N/A W20G28    29.94R
HILLSVILLE*    MOCLDY    68  64  85 SW6       29.91R
RICHLANDS*     HVY RAIN  72  67  84 W16G23    29.95R
WISE*          LGT RAIN  68  68 100 SW18G26   29.97R
ABINGDON*      MOCLDY    69  66  92 W8        29.95R
$$

MDZ021>025-VAZ099-100-280400-
SOUTHERN MARYLAND AND THE DELMARVA PENINSULA

CITY           SKY/WX    TMP DP  RH WIND       PRES   REMARKS
PATUXENT RIVER CLEAR     77  71  82 SW10      29.67F
BAY BRIDGE APT   N/A     79  72  78 S9G16     29.66F
LEONARDTOWN    CLEAR     77  70  78 S9        29.69F
DOVER          PTCLDY    75  74  96 S9        29.66F
GEORGETOWN     CLEAR     76  71  85 S15       29.70F
EASTON         PTCLDY    79  74  85 SW7       29.71
CAMBRIDGE      CLEAR     79  72  78 S6        29.69S
SALISBURY      NOT AVBL
OCEAN CITY     CLEAR     76  73  91 SW9       29.71F
WALLOPS ISLAND CLEAR     77  74  90 SW13      29.74F
ACCOMACK*        N/A     75  70  83 SW10      29.75R
$$

NCZ012>017-030>032-280400-
EASTERN NORTH CAROLINA

CITY           SKY/WX    TMP DP  RH WIND       PRES   REMARKS
ELIZABETH CITY MOCLDY    77  72  84 S6        29.79F
AHOSKIE*       MOCLDY    74  71  92 S5        29.78F
EDENTON*       MOCLDY    78  74  88 S7        29.80S
CURRITUCK*     MOCLDY    77  69  75 CALM      29.80F
KILL DEVIL HLS MOCLDY    79  72  79 SW5       29.80F
MANTEO         NOT AVBL
CAPE HATTERAS  MOCLDY    81  79  94 SW13      29.83F
GOLDSBORO      CLOUDY    83  76  81 S8G16     29.76F
WASHINGTON     MOCLDY    81  74  79 S7        29.81S
GREENVILLE     CLOUDY    81  73  78 SW10      29.81F
NEW BERN       MOCLDY    82  75  79 S9        29.82F
WILMINGTON     MOCLDY    83  78  85 SW12      29.86S
$$

VAZ048-280400-
ELSEWHERE

CITY           SKY/WX    TMP DP  RH WIND       PRES   REMARKS
HARRISBURG PA  MOCLDY    68  63  84 CALM      29.67F
BALTIMORE      MOCLDY    78  71  79 S5        29.65F
ANNAPOLIS      MOCLDY    79  72  79 SW3       29.66F
ANDREWS AFB    PTCLDY    77  73  86 S8        29.66F
WILMINGTON DE  CLOUDY    79  72  79 S10       29.66F
PHILADELPHIA   CLOUDY    79  70  74 S7        29.66F
WILDWOOD NJ*   PTCLDY    75  68  78 S9        29.71F
ATLANTIC CITY  MOCLDY    77  70  79 SW6       29.70F
HENDERSON NC   CLOUDY    76  71  84 S5        29.77F
GREENSBORO     CLOUDY    82  71  69 SW15      29.78F
ROCKY MOUNT    CLOUDY    80  73  79 S5        29.78F
FAYETTEVILLE   CLOUDY    85  73  67 SW16      29.79F
CHARLOTTE      TSTM      79  72  79 W14G30    29.90R
$$

VAZ100-280400-
MARINE

STATION/POSITION TIME  TEMP    WIND        PRES    WAVE   SWELL
                       AIR SEA DIR/SP/G            HT/PER HT/PER
                 (UTC) (F)     (DEG/KT/KT) (MB)    (FT/S) (FT/S)
44066 TX TWR #4  0300   75 74  210/ 14/ 16 1006.7F   4/ 6   2/11
CAPE MAY NJ      0300   75 78  160/  7/  9 1005.4F
LEWES DE         0300   77 73  190/  5/  7 1005.4F
15NM E FENWICK I 0200   75 74              1007.1S   3/ 5
OCEAN-CITY-INLET 0300   72 71  210/ 13/ 15 1006.0F
WACHAPREAGUE VA  0300   78 80  210/  8/ 12 1007.2R
THOMAS POINT MD  0300   79 80  190/ 18/ 19 1004.5F
GOOSES REEF MD   0300   80     210/ 12/ 16 1005.5F
COVE POINT MD    0300   78     210/ 14/ 15 1004.7F
SOLOMONS ISLAND  0300      80                N/A
BISHOPS HEAD MD  0300   79 78  190/ 14/ 16 1005.3F
PINEY POINT MD   0300          220/ 15/ 16   N/A
POTOMAC MD       0300   79     220/ 14/ 17 1005.2S
CAMBRIDGE MD     0300   78 80  190/  6/  9 1005.0R
LEWISETTA VA     0300   78 80  220/ 13/ 16 1005.3F
RAPPAHANNOCK LGT 0300          200/ 18/ 20 1007.3F
STINGRAY PT      0300   79     210/ 12/ 16 1007.6F
YORK RVR RNG VA  0300   80     230/ 15/ 17 1006.7S
YORKTOWN VA      0300   79 80  210/ 10/ 13 1007.0F
JAMESTOWN VA     0300   76     220/ 10/ 14   N/A
DOMINION TERM VA 0300   79     210/ 12/ 13 1008.0S
KIPTOPEKE VA     0300      82  220/ 12/ 14   N/A
CHES BAY BRIDGE  0300   79 79  200/ 16/ 19 1007.2S
CAPE HENRY VA    0300   78     210/  8/ 11 1006.8F
WILLOUBY STN VA  0300          220/ 11/ 13 1007.0F
S CRANEY ISL VA  0300          190/  8/ 12 1007.8F
CAPE HENRY BUOY  0300      77                N/A     2/ 6
1ST LANDING BUOY 0300   80     220/ 14/ 16 1007.6F
CAPE CHARLES BUO 0300      76                N/A     2/11
OFFSHORE WE BUOY 0300      78                N/A     2/ 6
64NM E OF VA BCH 0300   79 78  210/ 12/ 14 1008.3F   3/11   2/11
DUCK PIER NC     0300   80 65  210/  7/ 11 1008.3F
44056 DUCK FRF   0200                        N/A     1/11
OREGON INLET NC  0300   81 83  200/  9/ 11 1009.5F
HATTERAS NC      0300   81 83  220/  9/ 14 1010.7F
DIAMOND SHLS NC  0300          VRB 16/ 19  1010.4R   3/ 4   2/ 8
CAPE LOOKOUT NC  0200   82     220/ 11/ 17 1011.0R
$$



USA.gov is the U.S. government's official web portal to all federal, state and local government web resources and services.